When you browse on this site, cookies collect data to enhance your experience and personalize the content and advertising you see.
Visit our Privacy Policy to learn more. By continuing to use the site, you agree to this use of cookies and data.
  • In Deutschland
  • Länderverzeichnis
  • Für 7 Tage
  • Wassertemperatur
  • Satellitenkarten
  • Wetterkarte
  • Widgets
  • user-avatar
    Anmelden

    Stündliche Wetter Maidstone

    Heute, 17 Dezember, Montag

    Zeit Temperatur Niederschläge Wind Luftdruck Luftfeuchtigkeit
    00:00 +5°C° 0 mm 6 m/S 754 mmHg 90%
    01:00 +5°C° 0 mm 6 m/S 754 mmHg 88%
    02:00 +4°C° 0 mm 7 m/S 755 mmHg 87%
    03:00 +4°C° 0 mm 7 m/S 756 mmHg 86%
    04:00 +4°C° 0 mm 6 m/S 756 mmHg 86%
    05:00 +3°C° 0 mm 6 m/S 757 mmHg 87%
    06:00 +3°C° 0 mm 6 m/S 758 mmHg 88%
    07:00 +3°C° 0 mm 6 m/S 759 mmHg 88%
    08:00 +3°C° 0 mm 5 m/S 760 mmHg 88%
    09:00 +3°C° 0 mm 5 m/S 760 mmHg 87%
    10:00 +6°C° 0 mm 5 m/S 761 mmHg 84%
    11:00 +7°C° 0 mm 5 m/S 761 mmHg 80%
    12:00 +8°C° 0 mm 5 m/S 762 mmHg 76%
    13:00 +8°C° 0 mm 5 m/S 762 mmHg 78%
    14:00 +8°C° 0 mm 5 m/S 762 mmHg 79%
    15:00 +8°C° 0 mm 4 m/S 762 mmHg 81%
    16:00 +7°C° 0 mm 5 m/S 762 mmHg 84%
    17:00 +7°C° 0 mm 5 m/S 762 mmHg 86%
    18:00 +7°C° 0 mm 5 m/S 762 mmHg 89%
    19:00 +7°C° 0 mm 6 m/S 762 mmHg 89%
    20:00 +7°C° 0 mm 6 m/S 762 mmHg 89%
    21:00 +8°C° 0 mm 6 m/S 762 mmHg 89%
    22:00 +8°C° 0 mm 6 m/S 762 mmHg 90%
    23:00 +8°C° 0 mm 7 m/S 762 mmHg 90%

    Morgen, 18 Dezember, Dienstag

    Zeit Temperatur Niederschläge Wind Luftdruck Luftfeuchtigkeit
    00:00 +8°C° 0 mm 7 m/S 762 mmHg 90%
    01:00 +8°C° 0 mm 7 m/S 761 mmHg 90%
    02:00 +8°C° 0 mm 7 m/S 761 mmHg 89%
    03:00 +9°C° 0 mm 7 m/S 760 mmHg 89%
    04:00 +9°C° 0 mm 8 m/S 760 mmHg 88%
    05:00 +9°C° 0 mm 8 m/S 760 mmHg 87%
    06:00 +9°C° 0 mm 8 m/S 759 mmHg 86%
    07:00 +8°C° 0 mm 9 m/S 759 mmHg 85%
    08:00 +7°C° 0 mm 9 m/S 758 mmHg 84%
    09:00 +7°C° 0 mm 10 m/S 758 mmHg 83%
    10:00 +8°C° 0 mm 10 m/S 757 mmHg 79%
    11:00 +8°C° 0 mm 11 m/S 756 mmHg 75%
    12:00 +8°C° 0 mm 11 m/S 756 mmHg 71%
    13:00 +8°C° 0.2 mm 11 m/S 755 mmHg 70%
    14:00 +8°C° 0.2 mm 11 m/S 754 mmHg 69%
    15:00 +8°C° 0.2 mm 11 m/S 753 mmHg 69%
    16:00 +7°C° 0.1 mm 11 m/S 752 mmHg 70%
    17:00 +7°C° 0.1 mm 11 m/S 752 mmHg 72%
    18:00 +7°C° 0.1 mm 11 m/S 751 mmHg 73%
    19:00 +7°C° 0.9 mm 11 m/S 751 mmHg 78%
    20:00 +7°C° 0.9 mm 10 m/S 751 mmHg 83%
    21:00 +8°C° 0.9 mm 10 m/S 751 mmHg 87%
    22:00 +7°C° 0.3 mm 9 m/S 751 mmHg 86%
    23:00 +8°C° 0.3 mm 7 m/S 752 mmHg 86%

    übermorgen, 19 Dezember, Mittwoch

    Zeit Temperatur Niederschläge Wind Luftdruck Luftfeuchtigkeit
    00:00 +7°C° 0.3 mm 5 m/S 752 mmHg 85%
    01:00 +7°C° 0 mm 5 m/S 752 mmHg 85%
    02:00 +7°C° 0 mm 5 m/S 753 mmHg 85%
    03:00 +7°C° 0 mm 6 m/S 753 mmHg 85%
    04:00 +7°C° 0.1 mm 6 m/S 753 mmHg 86%
    05:00 +7°C° 0.1 mm 6 m/S 753 mmHg 86%
    06:00 +7°C° 0.1 mm 6 m/S 753 mmHg 87%
    07:00 +7°C° 0.7 mm 6 m/S 753 mmHg 87%
    08:00 +7°C° 0.7 mm 6 m/S 753 mmHg 88%
    09:00 +6°C° 0.7 mm 7 m/S 754 mmHg 88%
    10:00 +7°C° 0.4 mm 6 m/S 754 mmHg 86%
    11:00 +8°C° 0.4 mm 6 m/S 754 mmHg 84%
    12:00 +8°C° 0.4 mm 5 m/S 753 mmHg 81%
    13:00 +8°C° 0.1 mm 5 m/S 754 mmHg 80%
    14:00 +8°C° 0.1 mm 5 m/S 754 mmHg 79%
    15:00 +7°C° 0.1 mm 4 m/S 754 mmHg 78%
    16:00 +7°C° 0.3 mm 4 m/S 754 mmHg 80%
    17:00 +6°C° 0.3 mm 4 m/S 754 mmHg 82%
    18:00 +6°C° 0.3 mm 5 m/S 755 mmHg 84%
    19:00 +6°C° 0.4 mm 5 m/S 755 mmHg 84%
    20:00 +6°C° 0.4 mm 5 m/S 755 mmHg 83%
    21:00 +6°C° 0.4 mm 5 m/S 755 mmHg 82%
    22:00 +6°C° 0.2 mm 5 m/S 755 mmHg 82%
    23:00 +6°C° 0.2 mm 5 m/S 755 mmHg 82%

    20 Dezember, Donnerstag

    Zeit Temperatur Niederschläge Wind Luftdruck Luftfeuchtigkeit
    00:00 +6°C° 0.2 mm 5 m/S 755 mmHg 81%
    01:00 +5°C° 0.1 mm 5 m/S 755 mmHg 82%
    02:00 +5°C° 0.1 mm 5 m/S 755 mmHg 82%
    03:00 +5°C° 0.1 mm 5 m/S 756 mmHg 82%
    04:00 +5°C° 0 mm 5 m/S 756 mmHg 83%
    05:00 +5°C° 0 mm 5 m/S 756 mmHg 83%
    06:00 +4°C° 0 mm 6 m/S 756 mmHg 83%
    07:00 +5°C° 0.2 mm 6 m/S 756 mmHg 83%
    08:00 +5°C° 0.2 mm 7 m/S 756 mmHg 82%
    09:00 +6°C° 0.2 mm 7 m/S 756 mmHg 81%
    10:00 +6°C° 0.3 mm 8 m/S 756 mmHg 78%
    11:00 +7°C° 0.3 mm 8 m/S 755 mmHg 75%
    12:00 +7°C° 0.3 mm 9 m/S 755 mmHg 72%
    13:00 +7°C° 0.3 mm 8 m/S 755 mmHg 73%
    14:00 +7°C° 0.3 mm 8 m/S 755 mmHg 73%
    15:00 +7°C° 0.3 mm 8 m/S 755 mmHg 74%
    16:00 +6°C° 0.1 mm 7 m/S 755 mmHg 76%
    17:00 +6°C° 0.1 mm 7 m/S 755 mmHg 77%
    18:00 +5°C° 0.1 mm 6 m/S 755 mmHg 79%
    19:00 +5°C° 0 mm 6 m/S 755 mmHg 80%
    20:00 +6°C° 0 mm 5 m/S 755 mmHg 81%
    21:00 +6°C° 0 mm 4 m/S 755 mmHg 83%
    22:00 +6°C° 0.1 mm 4 m/S 755 mmHg 84%
    23:00 +7°C° 0.1 mm 4 m/S 755 mmHg 86%

    21 Dezember, Freitag

    Zeit Temperatur Niederschläge Wind Luftdruck Luftfeuchtigkeit
    00:00 +7°C° 0.1 mm 4 m/S 754 mmHg 88%
    01:00 +8°C° 0.6 mm 4 m/S 754 mmHg 91%
    02:00 +8°C° 0.6 mm 5 m/S 753 mmHg 94%
    03:00 +9°C° 0.6 mm 5 m/S 752 mmHg 96%
    04:00 +9°C° 0.9 mm 6 m/S 752 mmHg 95%
    05:00 +10°C° 0.9 mm 7 m/S 751 mmHg 94%
    06:00 +10°C° 0.9 mm 7 m/S 750 mmHg 94%
    07:00 +11°C° 1.3 mm 8 m/S 749 mmHg 93%
    08:00 +11°C° 1.3 mm 9 m/S 749 mmHg 92%
    09:00 +12°C° 1.3 mm 10 m/S 748 mmHg 92%
    10:00 +11°C° 0.1 mm 10 m/S 749 mmHg 85%
    11:00 +11°C° 0.1 mm 11 m/S 749 mmHg 78%
    12:00 +9°C° 0.1 mm 11 m/S 750 mmHg 70%
    13:00 +9°C° 0 mm 10 m/S 751 mmHg 70%
    14:00 +8°C° 0 mm 10 m/S 752 mmHg 70%
    15:00 +8°C° 0 mm 9 m/S 753 mmHg 70%
    16:00 +8°C° 0 mm 9 m/S 754 mmHg 73%
    17:00 +9°C° 0 mm 8 m/S 754 mmHg 76%
    18:00 +7°C° 0 mm 8 m/S 755 mmHg 79%
    19:00 +9°C° 0 mm 8 m/S 755 mmHg 78%
    20:00 +9°C° 0 mm 8 m/S 755 mmHg 78%
    21:00 +9°C° 0 mm 8 m/S 755 mmHg 78%
    22:00 +8°C° 0.1 mm 9 m/S 755 mmHg 79%
    23:00 +10°C° 0.1 mm 9 m/S 755 mmHg 81%

    22 Dezember, Samstag

    Zeit Temperatur Niederschläge Wind Luftdruck Luftfeuchtigkeit
    00:00 +9°C° 0.1 mm 10 m/S 755 mmHg 82%
    01:00 +8°C° 0.1 mm 10 m/S 755 mmHg 80%
    02:00 +8°C° 0.1 mm 9 m/S 756 mmHg 79%
    03:00 +7°C° 0.1 mm 9 m/S 756 mmHg 77%
    04:00 +7°C° 0 mm 9 m/S 756 mmHg 77%
    05:00 +7°C° 0 mm 9 m/S 757 mmHg 77%
    06:00 +6°C° 0 mm 9 m/S 758 mmHg 76%
    07:00 +6°C° 0 mm 8 m/S 758 mmHg 77%
    08:00 +6°C° 0 mm 7 m/S 759 mmHg 78%
    09:00 +7°C° 0 mm 6 m/S 760 mmHg 79%
    10:00 +8°C° 0 mm 6 m/S 760 mmHg 79%
    11:00 +9°C° 0 mm 6 m/S 760 mmHg 79%
    12:00 +9°C° 0 mm 6 m/S 761 mmHg 78%
    13:00 +9°C° 0 mm 5 m/S 761 mmHg 81%
    14:00 +9°C° 0 mm 5 m/S 761 mmHg 83%
    15:00 +10°C° 0 mm 4 m/S 761 mmHg 86%
    16:00 +10°C° 0 mm 4 m/S 761 mmHg 89%
    17:00 +8°C° 0 mm 4 m/S 761 mmHg 91%
    18:00 +9°C° 0 mm 3 m/S 761 mmHg 94%
    19:00 +9°C° 0 mm 3 m/S 761 mmHg 94%
    20:00 +9°C° 0 mm 3 m/S 761 mmHg 95%
    21:00 +9°C° 0 mm 3 m/S 761 mmHg 96%
    22:00 +9°C° 0 mm 3 m/S 761 mmHg 96%
    23:00 +9°C° 0 mm 3 m/S 761 mmHg 97%
    Mehr zeigen